Weather Roundup
Issued by NWS

Home | Current Version | Previous Version | Graphics & Text | Print | Product List | Glossary Off
Versions: 1 2 3 4 5 6 7 8 9 10 11 12 13 14 15 16 17 18 19 20 21 22 23 24 25 26 27 28 29 30 31 32 33 34 35 36 37 38 39 40 41 42 43 44 45 46 47 48 49 50

000
NZUS93 KARX 050759
HRRWXR

CURRENT HOURLY OBSERVATIONS ACROSS
MUCH OF THE UPPER MISSISSIPPI VALLEY
NATIONAL WEATHER SERVICE LA CROSSE WI
300 AM CDT SUN JUL 05 2015


...SOUTHEAST MINNESOTA...


CITY           SKY/WX    TMP DP  RH WIND       PRES   REMARKS
ROCHESTER      CLEAR     62  58  86 S8        29.99F
ROCHESTER/MAYO FAIR      65  60  81 S7        29.98S
WINONA         CLEAR     66  61  82 CALM      29.98S
AUSTIN         CLEAR     64  59  82 S5        29.98S
ALBERT LEA     CLEAR     66  57  72 S7        29.97S
DODGE CENTER   PTCLDY    64  61  88 S9        29.97S
PRESTON        CLEAR     61  58  88 S5        30.01S
OWATONNA       CLEAR     66  57  72 S9        29.96S
FARIBAULT      CLEAR     66  61  82 S7        29.96R
$$

...ELSEWHERE IN MINNESOTA...


CITY           SKY/WX    TMP DP  RH WIND       PRES   REMARKS
MINNEAPOLIS    CLEAR     70  60  70 S7        29.93S
INTNL FALLS    CLOUDY    65  60  84 SW5       29.82S
DULUTH         PTCLDY    57  53  86 SE6       29.92S
RED WING       CLEAR     70  61  73 S6        29.94S
REDWOOD FALLS  PTCLDY    65  60  84 S8        29.88F
MANKATO        CLEAR     64  57  77 S9        29.94S
WORTHINGTON    PTCLDY    66  57  72 S13       29.92F
FAIRMONT       CLEAR     63  55  77 S10       29.93F
$$

...SOUTHWEST WISCONSIN...


CITY           SKY/WX    TMP DP  RH WIND       PRES   REMARKS
LA CROSSE      CLEAR     68  65  90 S7        29.99F
PRAIRIE DU CHI CLEAR     60  58  92 CALM      30.02S
BOSCOBEL       PTCLDY    59  58  96 CALM      30.03S FOG
LONE ROCK      NOT AVBL
PLATTEVILLE    CLEAR     64  61  91 CALM      30.05S
FORT MC COY    PTCLDY    58  56  94 CALM      30.02F
CAMP DOUGLAS   FOG       57  57 100 SE3       30.01F VSB 1
VIROQUA        FAIR      64  59  83 S6        30.03F
WIS DELLS      CLEAR     61  58  89 CALM      30.04S
$$

...ELSEWHERE IN WISCONSIN...


CITY           SKY/WX    TMP DP  RH WIND       PRES   REMARKS
MILWAUKEE      PTCLDY    66  55  67 CALM      30.05R
MADISON        CLEAR     65  59  81 CALM      30.04S
GREEN BAY      CLEAR     63  60  90 S5        30.03R FOG
EAU CLAIRE     NOT AVBL
BLACK RVR FLS  FAIR      56  56 100 CALM      29.99F FOG
MEDFORD        CLEAR     64  62  96 S5        30.01F FOG
WAUSAU         CLEAR     64  62  93 CALM      30.00F FOG
WIS RAPIDS     CLEAR     64  60  87 S3        30.02F
MARSHFIELD     PTCLDY    63  60  90 S6        30.01F FOG
RICE LAKE      CLEAR     65  62  90 S5        29.96F FOG
$$

...NORTHEAST IOWA...


CITY           SKY/WX    TMP DP  RH WIND       PRES   REMARKS
DECORAH          N/A    N/A N/A N/A MISG        N/A
MASON CITY     CLEAR     60  57  89 S7        30.00F
CHARLES CITY     N/A     63  63 100 S7        30.01F
OELWEIN          N/A     61  59  94 SE7       30.03S
$$

...ELSEWHERE IN IOWA...


CITY           SKY/WX    TMP DP  RH WIND       PRES   REMARKS
DES MOINES     PTCLDY    66  59  78 S6        29.99S
IOWA CITY      CLEAR     62  59  90 CALM      30.04S
FORT DODGE     CLEAR     66  57  72 S7        29.98S
$$

...NORTHERN ILLINOIS...


CITY           SKY/WX    TMP DP  RH WIND       PRES   REMARKS
CHICAGO-OHARE  PTCLDY    63  57  81 CALM      30.05R SMOKE
CHICAGO-MIDWAY PTCLDY    69  59  70 CALM      30.05R SMOKE
MOLINE         CLEAR     64  59  83 CALM      30.04R
ROCKFORD       CLEAR     63  59  87 CALM      30.07R
PEORIA         CLEAR     65  60  84 CALM      30.06R HAZE
$$

NOTE: "FAIR" INDICATES FEW OR NO CLOUDS BELOW 12,000 FEET WITH NO
SIGNIFICANT WEATHER AND/OR OBSTRUCTIONS TO VISIBILITY. WIND
SPEEDS ARE IN MILES-PER-HOUR.



USA.gov is the U.S. government's official web portal to all federal, state and local government web resources and services.